Regional Weather Roundup
Issued by NWS Newport/Morehead, NC

Home | Current Version | Previous Version | Text Only | Print | Product List | Glossary On
Versions: 1 2 3 4 5 6 7 8 9 10 11 12 13 14 15 16 17 18 19 20 21 22 23 24 25 26 27 28 29 30 31 32 33 34 35 36 37 38 39 40 41 42 43 44 45 46 47 48 49 50
000
ASUS42 KMHX 020925
RWRMHX
WEATHER ROUNDUP FOR EASTERN NORTH CAROLINA
NATIONAL WEATHER SERVICE NEWPORT/MOREHEAD CITY NC
500 AM EDT WED SEP 02 2015

NOTE: "FAIR" INDICATES FEW OR NO CLOUDS BELOW 12,000 FEET
WITH NO SIGNIFICANT WEATHER AND/OR OBSTRUCTIONS TO VISIBILITY

NCZ015>017-031-032-045>047-102-103-021000-
NORTH COAST

CITY           SKY/WX    TMP DP  RH WIND       PRES   REMARKS
EDENTON        CLEAR     68  67  95 CALM      30.05R
ELIZABETH CITY CLEAR     70  70 100 W3        30.04S FOG
KITTY HAWK     SUNNY     73  71  92 CALM      30.03R
MANTEO         CLEAR     71  71  99 CALM      30.04S FOG

$$

NCZ045>047-081-094-103-104-021000-
CENTRAL COAST

CITY           SKY/WX    TMP DP  RH WIND       PRES   REMARKS
FRISCO         CLEAR     77  74  90 NW5       30.03F
SWANQUARTER      N/A     73 N/A N/A NW2       30.00S

$$

NCZ095-097-098-100-101-021000-
SOUTHERN COAST

CITY           SKY/WX    TMP DP  RH WIND       PRES   REMARKS
BEAUFORT       CLEAR     75  74  96 W5        30.05S
CEDAR ISLAND     N/A     77 N/A N/A W6        30.09S
JACKSONVILLE   CLEAR     73  71  93 CALM      30.05S
PINEY ISLAND   SUNNY    N/A N/A N/A W7        30.04S
WILMINGTON     CLEAR     75  72  90 W3        30.05F


$$

NCZ011>013-027>030-043-044-078>080-089-090>093-098-021000-
COASTAL PLAIN

CITY           SKY/WX    TMP DP  RH WIND       PRES   REMARKS
AHOSKIE        CLEAR     65  65  98 CALM      30.05F
CLINTON        CLOUDY    70  70 100 CALM      30.06S FOG
ELIZABETHTOWN  CLEAR     73  73  99 CALM      30.06S
GOLDSBORO      CLEAR     70  70  99 CALM      30.04S
GREENVILLE     FOG       70  70 100 CALM      30.06F VSB 1
HAVELOCK       CLEAR     74  72  93 SW3       30.06S
KENANSVILLE      N/A     69  68  98 CALM      30.06S
KINSTON          N/A     71  70  98 CALM      30.06F FOG
NEW BERN       CLEAR     73  71  93 CALM      30.06S
RICHLANDS      CLOUDY    70  64  83 CALM      30.05F VSB<1/4
ROCKY MOUNT    CLEAR     68  67  96 CALM      30.05S FOG
WASHINGTON     CLEAR     68  68  98 CALM      30.05S
WHITEVILLE     CLEAR     74  72  94 CALM      30.06S

$$

AMZ130-135-150-152-154-156-158-170-250-252-270-ANZ085-086-088-633-658-670-021000-
MARINE OBSERVATIONS

STATION/POSITION TIME  TEMP    WIND        PRES    WAVE   SWELL
                       AIR SEA DIR/SP/G            HT/PER HT/PER
                 (UTC) (F)     (DEG/KT/KT) (MB)    (FT/S) (FT/S)
CHESAPEAKE LIGHT 0900   76     270/  5/  5 1017.8
64 E VA BEACH    0850   77 79  300/  6/  6 1016.6    2/ 7   2/ 7
DUCK             0900   77 79  280/  5/  6 1016.3
2 E DUCK         0811      80                N/A     1/11
OREGON INLET     0900   76 81  290/  3/  4 1016.9
13E OREGON INLT  0900      80                N/A     2/10
HATTERAS CG      0900   80 82  280/  9/ 10 1016.9
DIAMOND BUOY     0850   80 83  300/  8/ 10 1017.0    2/ 9   2/ 9
CAPE LOOKOUT     0900   79     280/  9/  9 1017.1
BEAUFORT LAB     0900   76 80  290/  2/  6 1016.9
30 SE NEW RVR IN 0808   81 81  280/ 10/ 12 1018.0
30 SE NEW RVR IN 0825      81                N/A     2/ 7
27 SE WRIGHTSVLE 0900   78 81  290/ 10/ 12   N/A
5 SE WRIGHTSVLE  0808   79 82  280/ 10/ 12 1017.9
225 S CAPE HAT   0850   84 84  290/  8/ 10 1017.2    3/ 9   2/ 9
41 SE CHARLESTON 0850   82 83  240/  4/  6 1017.3    2/ 7   2/ 7

$$


USA.gov is the U.S. government's official web portal to all federal, state and local government web resources and services.